[[{"header":{"parameterUnit":"m.s-1","parameterCategory":2,"la1":30.2991,"la2":30.254,"lo1":-89.0895,"lo2":-89.0444,"dy":0.0017,"dx":0.0017,"nx":28,"ny":28,"refTime":"2024-03-19T09:00:00:Z","depth":"0","parameterNumber":2,"parameterNumberName":"U-component_of_CURRENTS"},"data":[0,0,0,0,0,0,0,0,0,0,0,0,0,0,0,0,0,0,0,0,0,0,0,0,0,0,0,0,0,0,0,0,0,0,0,0,0,0,0,0,0,0,0,0,0,0,0,0,0,0,0,0,0,0,0,0,0,0,0.3424,0.3424,0,0.3417,0.3417,0.3417,0.3382,0.3382,0.3381,0.338,0.3361,0.3361,0.3362,0,0,0,0,0,0,0,0,0,0,0,0,0,0.3458,0.3457,0.3424,0.3424,0.3424,0.3417,0.3417,0.3416,0.3382,0.3382,0.3381,0.338,0.3361,0.3361,0.3362,0,0,0,0,0,0,0,0,0,0,0,0,0,0.3445,0.3457,0.3424,0.3408,0.3407,0.3417,0.3417,0.3416,0.3383,0.3382,0.3381,0.338,0.3361,0.3361,0.3362,0.3381,0,0,0.3362,0.3362,0,0,0,0,0,0,0,0,0.3445,0.3443,0.341,0.3409,0.3408,0.3401,0.3422,0.3405,0.3383,0.339,0.338,0.3379,0.3376,0.3375,0.3373,0.338,0.3379,0.3362,0.3362,0.3362,0.3362,0,0,0,0,0,0,0,0.3446,0.3444,0.3419,0.3411,0.3409,0.3418,0.3415,0.3419,0.3386,0.3389,0.3387,0.339,0.3374,0.3373,0.3372,0.3379,0.3362,0.3362,0.3362,0.3362,0.3419,0.342,0,0,0,0,0,0,0.3449,0.3444,0.342,0.3419,0.3427,0.3418,0.3414,0.3403,0.3386,0.3384,0.339,0.3388,0.3373,0.3372,0.3371,0.3414,0.3362,0.3362,0.3362,0.3418,0.3419,0.3421,0,0,0,0,0,0,0.345,0.3447,0.342,0.3434,0.3432,0.3419,0.3406,0.3403,0.3406,0.3388,0.3384,0.3397,0.3372,0.3371,0.3384,0.3412,0.3362,0.3362,0.3416,0.3418,0.342,0.3487,0,0,0,0,0,0,0.3451,0.3447,0.3448,0.3434,0.3431,0.3436,0.3407,0.3404,0.341,0.3407,0.3393,0.339,0.3371,0.3384,0.3384,0.3412,0.3362,0.3414,0.3417,0.3419,0.3483,0.3491,0.3498,0,0,0,0,0,0.3452,0.3455,0.3447,0.3445,0.3429,0.3438,0.3438,0.3424,0.3412,0.3422,0.3411,0.339,0.3401,0.3385,0.3385,0.3413,0.3413,0.3416,0.3419,0.348,0.349,0.3498,0,0,0,0,0,0,0.3474,0.3452,0.3443,0.344,0.3445,0.3433,0.3444,0.3435,0.3434,0.3431,0.3408,0.3405,0.343,0.3414,0.3397,0.3438,0.3404,0.3408,0.3451,0.346,0.3467,0.3476,0.3362,0,0,0,0,0,0.348,0.3471,0.3463,0.3463,0.3468,0.346,0.3464,0.3455,0.3451,0.3449,0.3437,0.3432,0.3444,0.3445,0.3448,0.3469,0.3474,0.3488,0.3496,0.3502,0.351,0.3554,0.3566,0.3432,0.3432,0.3431,0,0,0.3486,0.3477,0.347,0.3468,0.3469,0.3484,0.3459,0.3471,0.3482,0.3449,0.3463,0.3462,0.3458,0.3482,0.3491,0.347,0.3544,0.3507,0.3512,0.3516,0.3559,0.3572,0.3584,0.3434,0.3433,0.3433,0,0,0.3499,0.3492,0.3492,0.3502,0.351,0.351,0.3518,0.3513,0.3512,0.3527,0.3514,0.3532,0.3532,0.3541,0.3545,0.3599,0.3587,0.3599,0.364,0.3683,0.3695,0.3705,0.3729,0.3741,0.3598,0.3598,0.3598,0,0.351,0.3502,0.3499,0.3514,0.3524,0.3525,0.354,0.3551,0.3549,0.3564,0.3539,0.3573,0.3563,0.3613,0.3625,0.3618,0.3633,0.3605,0.3694,0.3704,0.3713,0.3736,0.3748,0.3602,0.3601,0.3601,0.36,0,0.3522,0.3526,0.3536,0.3547,0.3567,0.358,0.3597,0.3618,0.3616,0.3625,0.3667,0.3658,0.368,0.3683,0.3665,0.3733,0.3719,0.3703,0.3671,0.3731,0.375,0.3762,0.3607,0.3605,0.3604,0.3603,0,0,0.3488,0.3533,0.3528,0.3539,0.3581,0.3587,0.364,0.3676,0.3709,0.3719,0.3758,0.3781,0.3783,0.3789,0.378,0.3807,0.3878,0.3782,0.3782,0.3806,0.3967,0.3939,0.3948,0.388,0.3883,0.3885,0.3954,0,0.3487,0.3511,0.3541,0.3568,0.3579,0.3623,0.3668,0.3712,0.3747,0.3791,0.3814,0.3845,0.3824,0.3831,0.3866,0.3877,0.3911,0.386,0.3904,0.3905,0.3874,0.3962,0.3844,0.3895,0.3965,0.3967,0.3969,0,0.3461,0.3484,0.351,0.3564,0.3575,0.3606,0.3678,0.3722,0.3814,0.3842,0.3905,0.3921,0.3979,0.3936,0.4012,0.3982,0.3985,0.3985,0.3988,0.3946,0.3899,0.3846,0.3913,0.3827,0.3986,0.3985,0.3983,0,0.339,0.3445,0.3461,0.348,0.3557,0.3589,0.3638,0.3735,0.3788,0.3882,0.3922,0.4001,0.4029,0.4067,0.4083,0.4053,0.4155,0.4111,0.4094,0.4091,0.3991,0.3975,0.3979,0.4171,0.4171,0.4171,0.417,0,0.3346,0.3347,0.343,0.3433,0.347,0.3545,0.3607,0.3676,0.3793,0.3853,0.3939,0.3996,0.4064,0.4127,0.4129,0.4163,0.4203,0.4126,0.4121,0.401,0.3996,0.3915,0.3862,0.4173,0.4173,0.4172,0.4172,0,0.3243,0.3297,0.3316,0.3402,0.3432,0.3455,0.3581,0.3629,0.375,0.3835,0.3865,0.4015,0.4103,0.4167,0.4235,0.4216,0.4137,0.4241,0.4102,0.408,0.3959,0.3914,0.377,0.366,0.4231,0.4231,0.4231,0,0.3186,0.319,0.3272,0.329,0.3327,0.339,0.3434,0.3581,0.3641,0.3832,0.3855,0.4005,0.4077,0.4202,0.4225,0.4262,0.4132,0.4149,0.4069,0.3963,0.3909,0.3745,0.365,0.3961,0.3958,0.3956,0.3955,0,0.3085,0.312,0.3143,0.3189,0.323,0.3282,0.3361,0.3411,0.3572,0.3667,0.3791,0.3882,0.4038,0.4056,0.4142,0.4144,0.3963,0.4111,0.4041,0.3742,0.3523,0.3411,0.3896,0.3938,0.394,0.3941,0.3942,0.3943,0.3003,0.3,0.3044,0.307,0.3115,0.3146,0.3145,0.3247,0.334,0.3439,0.3637,0.3714,0.3866,0.3989,0.3967,0.3894,0.3851,0.3791,0.376,0.3615,0.3457,0.3907,0.392,0.3921,0.3923,0.3924,0.3925,0,0.2891,0.2902,0.2924,0.2942,0.2928,0.3007,0.3061,0.3042,0.3076,0.3239,0.3345,0.3511,0.3565,0.3651,0.369,0.3573,0.339,0.3479,0.3223,0.3159,0.361,0.355,0.3435,0.3435,0.3435,0.3435,0.3435,0.3435,0.2833,0.28,0.2809,0.2743,0.2754,0.2698,0.2697,0.2704,0.2783,0.286,0.295,0.3104,0.3354,0.3477,0.3406,0.3324,0.3069,0.2939,0.2911,0.3254,0.3279,0.3304,0.3236,0.3057,0.3057,0.234,0.2335,0.2331]},{"header":{"parameterUnit":"m.s-1","parameterCategory":2,"la1":30.2991,"la2":30.254,"lo1":-89.0895,"lo2":-89.0444,"dy":0.0017,"dx":0.0017,"nx":28,"ny":28,"refTime":"2024-03-19T09:00:00:Z","depth":"0","parameterNumber":3,"parameterNumberName":"V-component_of_CURRENTS"},"data":[0,0,0,0,0,0,0,0,0,0,0,0,0,0,0,0,0,0,0,0,0,0,0,0,0,0,0,0,0,0,0,0,0,0,0,0,0,0,0,0,0,0,0,0,0,0,0,0,0,0,0,0,0,0,0,0,0,0,0.0091,0.009,0,0.0027,0.0026,0.0025,-0.0021,-0.0021,-0.0021,-0.0021,-0.0101,-0.0103,-0.0105,0,0,0,0,0,0,0,0,0,0,0,0,0,0.0115,0.0115,0.0091,0.009,0.009,0.0027,0.0026,0.0025,-0.0021,-0.0021,-0.0021,-0.0021,-0.01,-0.0103,-0.0105,0,0,0,0,0,0,0,0,0,0,0,0,0,0.0081,0.0115,0.0091,0.0061,0.0058,0.0027,0.0026,0.0024,-0.0021,-0.0021,-0.0021,-0.0022,-0.01,-0.0103,-0.0106,-0.012,0,0,-0.0115,-0.0116,0,0,0,0,0,0,0,0,0.0083,0.008,0.0066,0.0063,0.006,0.0013,0.0005,-0.0024,-0.0021,0.0006,-0.0021,-0.0022,-0.0063,-0.0069,-0.0084,-0.0124,-0.0127,-0.0115,-0.0117,-0.0118,-0.0119,0,0,0,0,0,0,0,0.0085,0.0082,0.0063,0.0066,0.0062,0.0031,0.0026,-0.0001,-0.0028,0.0004,0.0001,-0.0002,-0.0065,-0.0081,-0.0086,-0.0128,-0.0115,-0.0118,-0.0119,-0.0121,-0.017,-0.0169,0,0,0,0,0,0,0.0102,0.0085,0.0065,0.0061,0.0074,0.0031,0.0026,0.0026,-0.0028,-0.0036,-0.0002,-0.0004,-0.0076,-0.0082,-0.0089,-0.0087,-0.0118,-0.0121,-0.0123,-0.017,-0.017,-0.0169,0,0,0,0,0,0,0.0103,0.0101,0.0067,0.0073,0.0067,0.0032,0.0032,0.0025,0.0015,-0.0031,-0.004,-0.0003,-0.0076,-0.0085,-0.0102,-0.0091,-0.0122,-0.0125,-0.0171,-0.017,-0.0169,-0.0098,0,0,0,0,0,0,0.0104,0.0102,0.0105,0.0074,0.0067,0.0061,0.0032,0.0024,0.0014,0.0011,-0.0036,-0.0044,-0.0077,-0.0097,-0.0104,-0.0096,-0.0127,-0.0171,-0.017,-0.017,-0.0101,-0.0095,-0.009,0,0,0,0,0,0.0105,0.0115,0.0106,0.0103,0.0074,0.0062,0.0056,0.0027,0.0015,0.0016,-0.0013,-0.0042,-0.0097,-0.0099,-0.0108,-0.01,-0.0172,-0.0171,-0.017,-0.0103,-0.0096,-0.009,0,0,0,0,0,0,0.0127,0.0111,0.01,0.0104,0.009,0.0056,0.0053,0.0036,0.0012,0.001,-0.0036,-0.0045,-0.006,-0.0087,-0.0088,-0.0112,-0.0139,-0.014,-0.0086,-0.0079,-0.0074,-0.0045,-0.013,0,0,0,0,0,0.0135,0.0138,0.0118,0.0122,0.0117,0.0087,0.0077,0.0062,0.0039,0.0028,-0.0004,-0.0037,-0.0064,-0.0075,-0.0107,-0.0115,-0.014,-0.0117,-0.0111,-0.0106,-0.0089,-0.0116,-0.0111,-0.0165,-0.0165,-0.0165,0,0,0.0143,0.0136,0.0137,0.0127,0.011,0.0117,0.008,0.0076,0.0081,0.0023,0.0018,-0.0021,-0.0063,-0.0076,-0.0084,-0.0095,-0.0105,-0.0104,-0.01,-0.0085,-0.0114,-0.0109,-0.0104,-0.0165,-0.0165,-0.0165,0,0,0.0172,0.0158,0.0174,0.0167,0.0155,0.014,0.0145,0.0119,0.0107,0.0097,0.0056,0.0034,-0.001,-0.0034,-0.0053,-0.0032,-0.0078,-0.0049,0.0007,-0.0019,-0.0015,-0.0011,-0.0041,-0.004,-0.0041,-0.0041,-0.0041,0,0.0185,0.0201,0.0177,0.0191,0.0193,0.0159,0.018,0.0163,0.0136,0.0136,0.0108,0.0054,0.0013,0.0006,0.0009,-0.0018,-0.0043,-0.0015,-0.0011,-0.0008,-0.0005,-0.0036,-0.0037,-0.0038,-0.0038,-0.0039,-0.0039,0,0.0225,0.0238,0.0247,0.0256,0.0254,0.0266,0.0247,0.0244,0.0223,0.0208,0.0193,0.0135,0.0108,0.0085,0.0051,0.0052,0.0024,-0.0004,-0.0024,0.0005,-0.003,-0.0032,-0.0033,-0.0034,-0.0035,-0.0036,0,0,0.0266,0.0275,0.0282,0.0299,0.0292,0.03,0.031,0.0316,0.034,0.0293,0.0312,0.0251,0.022,0.0197,0.0147,0.0124,0.0109,0.0074,0.0071,0.0053,0.0048,0.004,0.0037,0.0079,0.0079,0.0079,0.0014,0,0.031,0.0358,0.0345,0.0391,0.0416,0.0389,0.0409,0.0408,0.0396,0.0404,0.0344,0.0335,0.0263,0.0251,0.0216,0.0141,0.0109,0.0129,0.0016,0.0013,0.0009,0.0037,0.0073,0.002,0.0012,0.0012,0.0012,0,0.0362,0.0389,0.0441,0.0474,0.0483,0.0501,0.0534,0.055,0.0546,0.0537,0.0512,0.0458,0.0416,0.0346,0.0239,0.0254,0.016,0.0094,0.0089,0.0061,0.0004,-0.0011,0.0017,-0.0161,0.0009,0.0009,0.0009,0,0.042,0.046,0.0507,0.0514,0.0542,0.056,0.058,0.0594,0.0632,0.0625,0.0642,0.0572,0.055,0.0428,0.0282,0.0258,0.0165,0.011,0.0012,0.0009,0.001,0.0008,-0.0138,0.0031,0.0031,0.0031,0.0031,0,0.0478,0.0519,0.0538,0.0565,0.0639,0.0628,0.0707,0.0717,0.0747,0.0819,0.0719,0.075,0.057,0.0485,0.033,0.0182,0.0196,0.0035,-0.0,0.0034,0.0035,-0.0145,-0.0243,0.0028,0.0029,0.003,0.003,0,0.0537,0.0546,0.0608,0.0647,0.0669,0.0724,0.08,0.0858,0.087,0.0955,0.0955,0.0892,0.079,0.0598,0.0416,0.0264,0.0016,0.0043,0.0097,0.0069,-0.0194,-0.0288,-0.0456,-0.0524,-0.0075,-0.0076,-0.0076,0,0.057,0.0606,0.0677,0.0726,0.0746,0.0825,0.0889,0.0926,0.1,0.1058,0.111,0.1028,0.1012,0.0735,0.0454,0.0188,0.001,0.0028,-0.0016,-0.019,-0.0321,-0.0396,-0.0446,0.0004,0.0004,0.0004,0.0004,0,0.0637,0.0658,0.071,0.0816,0.0886,0.0983,0.1076,0.1154,0.1217,0.1289,0.1374,0.1362,0.1105,0.0866,0.0489,0.0297,-0.0079,0.0024,-0.0169,-0.0272,-0.0349,-0.0436,0.0016,0.0007,0.0006,0.0006,0.0006,0.0006,0.0687,0.0739,0.0809,0.091,0.1003,0.1128,0.1224,0.1332,0.1472,0.1607,0.1588,0.1627,0.1255,0.0757,0.0455,-0.0067,-0.0088,-0.0231,-0.0331,-0.0391,-0.0452,0.0007,-0.0035,-0.0036,-0.0036,-0.0036,-0.0037,0,0.0747,0.0806,0.09,0.1022,0.1133,0.1173,0.1342,0.1449,0.1628,0.1777,0.1865,0.1741,0.1263,0.0761,0.0054,-0.0344,-0.0484,-0.0564,-0.067,-0.0706,-0.0305,-0.0297,-0.0381,-0.0381,-0.0381,-0.038,-0.038,-0.038,0.078,0.0876,0.0924,0.111,0.12,0.1362,0.1466,0.1636,0.1784,0.1983,0.2057,0.2081,0.1703,0.0394,-0.0504,-0.0712,-0.0975,-0.1039,-0.1192,-0.0936,-0.0913,-0.0891,-0.0908,-0.1119,-0.112,-0.1527,-0.1531,-0.1534]}],[{"header":{"parameterUnit":"m.s-1","parameterCategory":2,"la1":30.2991,"la2":30.254,"lo1":-89.0895,"lo2":-89.0444,"dy":0.0017,"dx":0.0017,"nx":28,"ny":28,"refTime":"2024-03-19T09:00:00:Z","depth":"2","parameterNumber":2,"parameterNumberName":"U-component_of_CURRENTS"},"data":[0,0,0,0,0,0,0,0,0,0,0,0,0,0,0,0,0,0,0,0,0,0,0,0,0,0,0,0,0,0,0,0,0,0,0,0,0,0,0,0,0,0,0,0,0,0,0,0,0,0,0,0,0,0,0,0,0,0,0.2757,0.2757,0,0.2774,0.2774,0.2774,0.2766,0.2766,0.2766,0.2766,0.2769,0.2769,0.2769,0,0,0,0,0,0,0,0,0,0,0,0,0,0.2733,0.2734,0.2756,0.2757,0.2757,0.2774,0.2774,0.2774,0.2766,0.2766,0.2766,0.2765,0.2769,0.2769,0.2769,0,0,0,0,0,0,0,0,0,0,0,0,0,0.2744,0.2734,0.2756,0.2757,0.2758,0.2774,0.2774,0.2774,0.2766,0.2766,0.2766,0.2765,0.2769,0.2769,0.2769,0.2777,0,0,0.277,0.2771,0,0,0,0,0,0,0,0,0.2743,0.2744,0.2757,0.2757,0.2758,0.277,0.2767,0.2775,0.2766,0.276,0.2766,0.2765,0.277,0.277,0.277,0.2778,0.2778,0.2771,0.2771,0.2771,0.2771,0,0,0,0,0,0,0,0.2743,0.2744,0.2761,0.2757,0.2758,0.2763,0.2764,0.2768,0.2764,0.2761,0.2761,0.2767,0.2769,0.277,0.277,0.2778,0.2771,0.2771,0.2771,0.2771,0.2835,0.2837,0,0,0,0,0,0,0.2745,0.2743,0.276,0.2761,0.2753,0.2764,0.2764,0.2764,0.2764,0.2765,0.2767,0.2767,0.2769,0.277,0.277,0.282,0.2771,0.2771,0.2772,0.2834,0.2836,0.2837,0,0,0,0,0,0,0.2744,0.2746,0.276,0.2755,0.2757,0.2765,0.2764,0.2765,0.2778,0.277,0.277,0.2782,0.2769,0.277,0.2789,0.2819,0.2771,0.2772,0.2832,0.2834,0.2836,0.2894,0,0,0,0,0,0,0.2743,0.2746,0.2754,0.2755,0.2758,0.278,0.2765,0.2765,0.2783,0.2783,0.2783,0.2782,0.2769,0.2789,0.2789,0.2818,0.2772,0.283,0.2833,0.2836,0.2891,0.2898,0.2905,0,0,0,0,0,0.2742,0.2753,0.2754,0.2757,0.2766,0.2781,0.2783,0.2785,0.2784,0.2795,0.2797,0.2782,0.2807,0.279,0.2791,0.2821,0.2829,0.2832,0.2835,0.2887,0.2897,0.2905,0,0,0,0,0,0,0.2747,0.2753,0.2754,0.2766,0.2779,0.2781,0.2796,0.2797,0.2807,0.281,0.2798,0.2797,0.283,0.2817,0.2799,0.2848,0.2817,0.2821,0.2857,0.2865,0.2872,0.2881,0.2772,0,0,0,0,0,0.2753,0.2761,0.277,0.2781,0.2791,0.2797,0.2807,0.281,0.2816,0.2821,0.282,0.2825,0.2842,0.2847,0.2856,0.2878,0.2885,0.2899,0.2906,0.2912,0.2921,0.2965,0.2977,0.2848,0.2848,0.2848,0,0,0.2757,0.2764,0.2768,0.2784,0.2794,0.2813,0.2802,0.2823,0.284,0.282,0.2845,0.2853,0.2856,0.2884,0.2897,0.2877,0.2953,0.2917,0.2922,0.2927,0.297,0.2983,0.2994,0.285,0.285,0.2849,0,0,0.2769,0.2779,0.279,0.2806,0.2828,0.2835,0.2847,0.2859,0.2868,0.2892,0.289,0.2917,0.2928,0.2941,0.2948,0.3001,0.2994,0.3005,0.3042,0.3086,0.3097,0.3106,0.313,0.3142,0.3002,0.3003,0.3003,0,0.2776,0.2785,0.2798,0.2818,0.2832,0.2849,0.2867,0.2885,0.2901,0.2921,0.2907,0.296,0.2957,0.3008,0.3023,0.3018,0.3035,0.3008,0.3095,0.3105,0.3114,0.3136,0.3148,0.3006,0.3005,0.3005,0.3005,0,0.2792,0.2808,0.282,0.2846,0.2869,0.2888,0.2914,0.2943,0.2957,0.2974,0.3029,0.3033,0.3066,0.3072,0.306,0.3129,0.3118,0.3104,0.3073,0.3131,0.315,0.3162,0.301,0.3009,0.3008,0.3008,0,0,0.277,0.282,0.2822,0.2835,0.2883,0.2895,0.2948,0.2992,0.3032,0.3058,0.3106,0.3141,0.3157,0.3167,0.3167,0.3195,0.3266,0.3177,0.3178,0.32,0.3358,0.3311,0.3319,0.3272,0.3274,0.3276,0.3345,0,0.2772,0.2803,0.2834,0.2866,0.2881,0.2928,0.2972,0.3022,0.3068,0.3122,0.3157,0.3202,0.319,0.3211,0.3246,0.3266,0.33,0.3248,0.3299,0.3301,0.3252,0.3332,0.3062,0.3098,0.3356,0.3358,0.3359,0,0.2761,0.2785,0.2815,0.2866,0.288,0.2913,0.2991,0.3036,0.3134,0.3173,0.3246,0.3273,0.334,0.3307,0.3391,0.3362,0.3371,0.3375,0.3377,0.3322,0.3276,0.3082,0.3108,0.3378,0.3376,0.3375,0.3374,0,0.2708,0.2762,0.2782,0.28,0.2872,0.2906,0.2956,0.3055,0.3106,0.3218,0.3269,0.3353,0.3398,0.3438,0.3462,0.3436,0.3539,0.35,0.3468,0.3463,0.3237,0.3209,0.356,0.356,0.356,0.356,0.356,0,0.2677,0.2687,0.2762,0.2769,0.2809,0.2878,0.2945,0.3017,0.313,0.3198,0.3295,0.3361,0.3435,0.3498,0.3503,0.3535,0.3583,0.3497,0.3491,0.3249,0.3223,0.3463,0.345,0.3562,0.3562,0.3561,0.3561,0,0.2603,0.2651,0.2674,0.2753,0.2782,0.2813,0.2929,0.2977,0.3105,0.32,0.3238,0.3389,0.3483,0.3541,0.361,0.3586,0.3611,0.3602,0.3311,0.327,0.3491,0.3481,0.3577,0.3576,0.3575,0.3575,0.3574,0,0.2564,0.2572,0.2647,0.2666,0.2703,0.2769,0.2812,0.2946,0.3006,0.3206,0.3237,0.3386,0.3454,0.3563,0.3556,0.3574,0.3625,0.3325,0.3227,0.3514,0.3499,0.349,0.3481,0.2943,0.2937,0.2933,0.2929,0,0.2492,0.2525,0.2548,0.2591,0.2632,0.2676,0.2756,0.2801,0.2959,0.305,0.3174,0.3253,0.3383,0.3301,0.3355,0.3324,0.3303,0.3235,0.362,0.2991,0.2925,0.2908,0.2918,0.2888,0.2892,0.2895,0.2897,0.2899,0.2436,0.2437,0.2474,0.25,0.2541,0.2564,0.2563,0.2657,0.2734,0.2833,0.3005,0.3031,0.3093,0.3046,0.2967,0.291,0.3137,0.298,0.299,0.3006,0.2931,0.2869,0.2806,0.281,0.2813,0.2815,0.2818,0,0.2352,0.2362,0.2381,0.2394,0.2376,0.2448,0.2494,0.2469,0.2495,0.2621,0.27,0.2542,0.2518,0.2569,0.2427,0.2447,0.2377,0.2339,0.2214,0.226,0.2299,0.2182,0.1861,0.1858,0.1855,0.1852,0,0,0.2309,0.228,0.2282,0.2217,0.2228,0.2169,0.2167,0.216,0.2204,0.2199,0.2199,0.2407,0.2505,0.2148,0.2121,0.1956,0.2077,0.1878,0.2656,0.2555,0.2589,0.2696,0.2574,0,0,0,0,0]},{"header":{"parameterUnit":"m.s-1","parameterCategory":2,"la1":30.2991,"la2":30.254,"lo1":-89.0895,"lo2":-89.0444,"dy":0.0017,"dx":0.0017,"nx":28,"ny":28,"refTime":"2024-03-19T09:00:00:Z","depth":"2","parameterNumber":3,"parameterNumberName":"V-component_of_CURRENTS"},"data":[0,0,0,0,0,0,0,0,0,0,0,0,0,0,0,0,0,0,0,0,0,0,0,0,0,0,0,0,0,0,0,0,0,0,0,0,0,0,0,0,0,0,0,0,0,0,0,0,0,0,0,0,0,0,0,0,0,0,0.0189,0.0188,0,0.0134,0.0133,0.0133,0.0094,0.0094,0.0094,0.0094,0.0028,0.0027,0.0025,0,0,0,0,0,0,0,0,0,0,0,0,0,0.0211,0.0211,0.0189,0.0188,0.0188,0.0134,0.0133,0.0132,0.0094,0.0094,0.0094,0.0094,0.0029,0.0027,0.0025,0,0,0,0,0,0,0,0,0,0,0,0,0,0.0182,0.0211,0.0189,0.0163,0.0161,0.0134,0.0133,0.0132,0.0094,0.0094,0.0094,0.0093,0.0029,0.0027,0.0025,0.0014,0,0,0.0017,0.0016,0,0,0,0,0,0,0,0,0.0183,0.0181,0.0168,0.0165,0.0162,0.0122,0.0117,0.0093,0.0094,0.0117,0.0094,0.0093,0.006,0.0055,0.0043,0.001,0.0008,0.0017,0.0015,0.0014,0.0014,0,0,0,0,0,0,0,0.0185,0.0182,0.0165,0.0167,0.0164,0.0138,0.0134,0.0112,0.0089,0.0115,0.0113,0.011,0.0058,0.0045,0.0041,0.0007,0.0017,0.0015,0.0013,0.0012,-0.003,-0.0029,0,0,0,0,0,0,0.0199,0.0185,0.0167,0.0164,0.0175,0.0138,0.0134,0.0134,0.0089,0.0083,0.011,0.0108,0.0049,0.0044,0.0038,0.0038,0.0014,0.0012,0.0011,-0.003,-0.003,-0.0029,0,0,0,0,0,0,0.02,0.0198,0.0169,0.0174,0.0169,0.0139,0.0139,0.0133,0.0124,0.0086,0.0079,0.0108,0.0049,0.0042,0.0029,0.0035,0.0011,0.0009,-0.003,-0.003,-0.0029,0.0028,0,0,0,0,0,0,0.0201,0.0199,0.0202,0.0175,0.0169,0.0163,0.0139,0.0132,0.0123,0.012,0.0082,0.0075,0.0048,0.0033,0.0026,0.0031,0.0007,-0.0031,-0.003,-0.003,0.0026,0.0031,0.0035,0,0,0,0,0,0.0202,0.021,0.0202,0.02,0.0175,0.0164,0.0158,0.0134,0.0124,0.0124,0.0101,0.0077,0.0032,0.0031,0.0024,0.0028,-0.0031,-0.003,-0.003,0.0024,0.003,0.0035,0,0,0,0,0,0,0.0221,0.0207,0.0197,0.0201,0.0188,0.0158,0.0155,0.0141,0.0121,0.012,0.0082,0.0075,0.0063,0.004,0.004,0.0017,-0.0004,-0.0005,0.0039,0.0044,0.0048,0.0071,0.0005,0,0,0,0,0,0.0228,0.0231,0.0212,0.0215,0.0211,0.0184,0.0176,0.0163,0.0144,0.0134,0.0108,0.008,0.0059,0.0049,0.0024,0.0015,-0.001,0.0012,0.0017,0.0021,0.0034,-0.0,0.0002,-0.0027,-0.0027,-0.0027,0,0,0.0235,0.0229,0.0229,0.022,0.0205,0.021,0.0179,0.0174,0.0179,0.0131,0.0126,0.0094,0.006,0.0048,0.0041,0.0031,0.0015,0.0022,0.0025,0.0037,0.0001,0.0004,0.0006,-0.0026,-0.0026,-0.0026,0,0,0.0259,0.0248,0.0261,0.0254,0.0243,0.023,0.0233,0.021,0.02,0.0192,0.0158,0.0137,0.0102,0.008,0.0064,0.008,0.0038,0.0066,0.0109,0.0076,0.0078,0.008,0.0049,0.0048,0.0071,0.0071,0.0071,0,0.0271,0.0285,0.0262,0.0274,0.0275,0.0245,0.0263,0.0248,0.0224,0.0223,0.0201,0.0153,0.0119,0.0111,0.0112,0.009,0.0065,0.0092,0.0082,0.0083,0.0084,0.0052,0.005,0.0074,0.0073,0.0073,0.0073,0,0.0303,0.0315,0.0322,0.0329,0.0327,0.0336,0.0319,0.0316,0.0299,0.0283,0.0268,0.0219,0.0194,0.0173,0.0147,0.0138,0.0115,0.009,0.0071,0.0091,0.0056,0.0052,0.0078,0.0077,0.0076,0.0075,0,0,0.0337,0.0345,0.035,0.0367,0.0359,0.0366,0.0374,0.0376,0.0395,0.0353,0.0363,0.0312,0.0283,0.0264,0.0221,0.019,0.0165,0.0148,0.0145,0.0123,0.0092,0.0071,0.0064,0.0135,0.0135,0.0135,0.0065,0,0.0374,0.0415,0.0404,0.0445,0.0466,0.0443,0.046,0.0456,0.0443,0.0443,0.0387,0.0377,0.0319,0.0309,0.0268,0.0194,0.0159,0.0186,0.0072,0.0069,0.0052,0.0061,0.0091,0.003,0.0061,0.006,0.006,0,0.0416,0.0441,0.0486,0.0517,0.0525,0.0541,0.0567,0.0581,0.0567,0.0557,0.0528,0.0479,0.0431,0.0375,0.0263,0.0283,0.0197,0.0132,0.0127,0.0088,0.0042,0.0015,0.0022,0.0053,0.0054,0.0054,0.0055,0,0.0465,0.0502,0.0543,0.055,0.0576,0.0593,0.0612,0.0617,0.0648,0.0631,0.0642,0.0568,0.0542,0.0426,0.0287,0.0273,0.0158,0.012,0.0019,0.0017,0.0011,0.0009,0.0039,0.0039,0.0039,0.0039,0.0039,0,0.0516,0.0551,0.0571,0.0595,0.0662,0.0653,0.0722,0.0729,0.0747,0.0801,0.0709,0.0724,0.0553,0.0461,0.0319,0.0167,0.018,0.0034,-0.0,0.0032,0.0032,0.0028,0.0028,0.0036,0.0037,0.0038,0.0038,0,0.0565,0.0574,0.0629,0.0666,0.0688,0.0738,0.0807,0.0855,0.086,0.0922,0.092,0.0843,0.0728,0.0545,0.0362,0.0224,0.0069,0.0008,0.0059,0.0032,-0.0061,-0.0058,-0.0111,-0.0112,-0.0113,-0.0114,-0.0115,0,0.0593,0.0625,0.069,0.0735,0.0755,0.0828,0.0885,0.0918,0.0979,0.1006,0.1044,0.0943,0.0899,0.0614,0.0355,0.0104,0.0066,-0.0042,-0.0067,-0.0047,-0.0075,-0.007,-0.0065,-0.0055,-0.0055,-0.0055,-0.0056,0,0.0651,0.0669,0.0716,0.0812,0.0878,0.0966,0.105,0.1115,0.1164,0.1206,0.1247,0.1207,0.0943,0.0692,0.0338,0.0172,-0.0002,-0.0054,-0.0044,-0.0019,0.0,-0.0026,-0.0022,-0.0057,-0.0057,-0.0057,-0.0057,-0.0057,0.0694,0.074,0.0801,0.0894,0.098,0.1091,0.1174,0.126,0.1365,0.1441,0.14,0.1344,0.1061,0.0611,0.0305,-0.0021,-0.0004,-0.012,-0.0117,-0.0115,-0.0093,-0.0077,-0.0144,-0.0145,-0.0145,-0.0145,-0.0145,0,0.0746,0.0797,0.088,0.099,0.1088,0.1129,0.1274,0.1353,0.148,0.1545,0.1571,0.1293,0.1,0.066,0.0178,-0.0102,-0.0115,-0.0192,-0.015,-0.0146,-0.0143,-0.0122,-0.0181,-0.0182,-0.0183,-0.0184,0,0,0.0774,0.0856,0.0896,0.1059,0.1141,0.1283,0.1372,0.1487,0.1566,0.1625,0.1595,0.1531,0.1111,0.0755,0.037,0.0086,0.004,0.0039,0.0103,0.0204,0.021,-0.0064,-0.0022,0,0,0,0,0]}],[{"header":{"parameterUnit":"m.s-1","parameterCategory":2,"la1":30.2991,"la2":30.254,"lo1":-89.0895,"lo2":-89.0444,"dy":0.0017,"dx":0.0017,"nx":28,"ny":28,"refTime":"2024-03-19T09:00:00:Z","depth":"4","parameterNumber":2,"parameterNumberName":"U-component_of_CURRENTS"},"data":[0,0,0,0,0,0,0,0,0,0,0,0,0,0,0,0,0,0,0,0,0,0,0,0,0,0,0,0,0,0,0,0,0,0,0,0,0,0,0,0,0,0,0,0,0,0,0,0,0,0,0,0,0,0,0,0,0,0,0.1758,0.1758,0,0.182,0.1821,0.1821,0.1875,0.1875,0.1876,0.1877,0.1947,0.1949,0.195,0,0,0,0,0,0,0,0,0,0,0,0,0,0.1678,0.1679,0.1757,0.1758,0.1759,0.182,0.1821,0.1821,0.1874,0.1875,0.1876,0.1877,0.1947,0.1948,0.195,0,0,0,0,0,0,0,0,0,0,0,0,0,0.1721,0.1679,0.1757,0.1795,0.1799,0.182,0.1821,0.1822,0.1874,0.1875,0.1877,0.1878,0.1947,0.1948,0.195,0.1936,0,0,0.1955,0.1956,0,0,0,0,0,0,0,0,0.1719,0.1724,0.1788,0.1792,0.1797,0.1843,0.1819,0.1861,0.1874,0.1843,0.1877,0.1878,0.1914,0.1918,0.1924,0.194,0.1943,0.1955,0.1956,0.1957,0.1958,0,0,0,0,0,0,0,0.1716,0.1721,0.178,0.1789,0.1795,0.1807,0.1814,0.1827,0.1869,0.1846,0.1851,0.1861,0.1916,0.1922,0.1926,0.1944,0.1955,0.1957,0.1958,0.1958,0.2064,0.2066,0,0,0,0,0,0,0.1712,0.1719,0.1778,0.1782,0.1763,0.1807,0.1816,0.1825,0.1869,0.1878,0.186,0.1863,0.1919,0.1924,0.1929,0.2016,0.1957,0.1959,0.196,0.2063,0.2065,0.2067,0,0,0,0,0,0,0.171,0.1716,0.1776,0.1754,0.1762,0.1808,0.1818,0.1826,0.1872,0.188,0.1889,0.1903,0.192,0.1926,0.1976,0.2016,0.1959,0.1961,0.2061,0.2063,0.2066,0.2127,0,0,0,0,0,0,0.1707,0.1715,0.1739,0.1753,0.1764,0.1812,0.1817,0.1826,0.1875,0.1881,0.1919,0.1925,0.1921,0.1974,0.1978,0.2017,0.1962,0.2058,0.2062,0.2065,0.2122,0.2131,0.2139,0,0,0,0,0,0.1704,0.1725,0.174,0.1749,0.1789,0.1813,0.182,0.1854,0.1877,0.19,0.1931,0.1925,0.1998,0.1977,0.1981,0.2022,0.2057,0.2061,0.2065,0.2119,0.2129,0.2138,0,0,0,0,0,0,0.1704,0.1733,0.175,0.178,0.1808,0.1824,0.1856,0.1876,0.1918,0.1938,0.1945,0.1952,0.2013,0.2008,0.1984,0.2063,0.2028,0.2033,0.2068,0.2078,0.2086,0.209,0.1964,0,0,0,0,0,0.1714,0.1742,0.1765,0.1795,0.1812,0.1842,0.1865,0.1888,0.1917,0.1939,0.1965,0.1996,0.2025,0.2046,0.2068,0.2106,0.211,0.2137,0.2145,0.2152,0.2159,0.2204,0.2217,0.208,0.208,0.208,0,0,0.1724,0.1745,0.1763,0.1799,0.1826,0.1853,0.186,0.1905,0.1937,0.1939,0.2004,0.2029,0.2044,0.2092,0.2118,0.2098,0.2193,0.2157,0.2163,0.2167,0.221,0.2223,0.2234,0.2083,0.2082,0.2082,0,0,0.1743,0.1778,0.1803,0.1829,0.1876,0.189,0.1912,0.195,0.1984,0.2036,0.2053,0.2103,0.2143,0.2163,0.2176,0.2241,0.2238,0.2255,0.2297,0.2341,0.2352,0.2362,0.2383,0.2394,0.2255,0.2256,0.2256,0,0.1759,0.1786,0.1815,0.1844,0.1872,0.1911,0.1941,0.1975,0.2028,0.2062,0.207,0.2161,0.2175,0.2235,0.226,0.226,0.2279,0.2257,0.2351,0.2361,0.237,0.2389,0.2401,0.2259,0.2259,0.2258,0.2258,0,0.178,0.1819,0.1839,0.1886,0.192,0.1955,0.1997,0.2049,0.2095,0.2127,0.2214,0.2239,0.2295,0.2308,0.2304,0.2383,0.2372,0.2359,0.2324,0.2388,0.2403,0.2414,0.2264,0.2263,0.2262,0.2261,0,0,0.1766,0.1839,0.185,0.1878,0.1946,0.1968,0.2039,0.2101,0.2158,0.2221,0.2291,0.235,0.2384,0.2401,0.2414,0.2446,0.2524,0.2437,0.2438,0.2453,0.2617,0.2454,0.245,0.2534,0.2537,0.2539,0.2599,0,0.1776,0.1828,0.1867,0.1925,0.1951,0.2016,0.2072,0.2142,0.2209,0.2287,0.2342,0.2414,0.2413,0.2455,0.2494,0.2523,0.2558,0.2508,0.2556,0.2557,0.2401,0.2459,0.2547,0.2608,0.261,0.2612,0.2613,0,0.1772,0.1809,0.1866,0.194,0.1961,0.2012,0.2116,0.2174,0.2291,0.2348,0.2441,0.2485,0.257,0.2548,0.2641,0.2616,0.2629,0.2635,0.2638,0.2471,0.2415,0.2532,0.2633,0.2632,0.263,0.2629,0.2628,0,0.1722,0.1803,0.1849,0.1876,0.197,0.2026,0.209,0.2206,0.2269,0.2405,0.247,0.2568,0.2634,0.2678,0.2711,0.2692,0.2789,0.2758,0.2621,0.261,0.271,0.2699,0.2818,0.2817,0.2817,0.2817,0.2817,0,0.169,0.173,0.184,0.1862,0.1931,0.2013,0.2108,0.2191,0.2319,0.2394,0.2509,0.2573,0.2675,0.2737,0.2747,0.272,0.2827,0.2637,0.2619,0.2734,0.2724,0.2718,0.2705,0.2819,0.2819,0.2818,0.2818,0,0.1621,0.1693,0.1751,0.1866,0.191,0.1966,0.211,0.2168,0.2312,0.2418,0.2467,0.2611,0.2689,0.2756,0.2824,0.2749,0.2743,0.2704,0.2828,0.2815,0.2524,0.2514,0.2549,0.2544,0.2539,0.2536,0.2533,0,0.1584,0.1612,0.1742,0.1783,0.1844,0.1945,0.2004,0.2152,0.2213,0.2414,0.2442,0.2582,0.2657,0.2619,0.2707,0.271,0.2677,0.2648,0.2574,0.2519,0.2499,0.2497,0.2493,0.2526,0.2525,0.2524,0.2522,0,0.1514,0.1583,0.1632,0.1717,0.179,0.1853,0.1957,0.1986,0.215,0.2301,0.2353,0.2394,0.2476,0.2514,0.2538,0.2536,0.265,0.2602,0.261,0.254,0.2492,0.2475,0.2477,0.2507,0.2509,0.2511,0.2512,0,0.1472,0.1491,0.157,0.1627,0.1708,0.1731,0.1802,0.1862,0.1938,0.2149,0.2163,0.2313,0.2449,0.2426,0.2453,0.2437,0.2393,0.2294,0.2317,0.2335,0.2237,0.2143,0.2041,0,0,0,0,0,0.1415,0.1421,0.1468,0.1514,0.1585,0.1632,0.1747,0.182,0.1979,0.1955,0.2051,0.2114,0.2158,0.2237,0.2176,0.2368,0.2408,0.2287,0.2307,0.2423,0.2441,0.2345,0,0,0,0,0,0,0.1376,0.1419,0.1427,0.1403,0.1412,0.1472,0.1538,0.165,0.1642,0.1815,0.1846,0.1978,0.2052,0.2167,0.2134,0.2157,0.2123,0.2383,0.2377,0.2414,0.2429,0.2443,0.2351,0,0,0,0,0]},{"header":{"parameterUnit":"m.s-1","parameterCategory":2,"la1":30.2991,"la2":30.254,"lo1":-89.0895,"lo2":-89.0444,"dy":0.0017,"dx":0.0017,"nx":28,"ny":28,"refTime":"2024-03-19T09:00:00:Z","depth":"4","parameterNumber":3,"parameterNumberName":"V-component_of_CURRENTS"},"data":[0,0,0,0,0,0,0,0,0,0,0,0,0,0,0,0,0,0,0,0,0,0,0,0,0,0,0,0,0,0,0,0,0,0,0,0,0,0,0,0,0,0,0,0,0,0,0,0,0,0,0,0,0,0,0,0,0,0,0.0179,0.0179,0,0.0148,0.0147,0.0147,0.0127,0.0127,0.0126,0.0126,0.0086,0.0085,0.0084,0,0,0,0,0,0,0,0,0,0,0,0,0,0.0188,0.0188,0.0179,0.0179,0.0178,0.0148,0.0147,0.0146,0.0127,0.0127,0.0126,0.0126,0.0086,0.0085,0.0083,0,0,0,0,0,0,0,0,0,0,0,0,0,0.0172,0.0188,0.0179,0.0166,0.0164,0.0148,0.0147,0.0146,0.0127,0.0127,0.0126,0.0126,0.0086,0.0085,0.0083,0.0074,0,0,0.0078,0.0078,0,0,0,0,0,0,0,0,0.0173,0.0172,0.0168,0.0166,0.0165,0.0142,0.0135,0.0122,0.0127,0.014,0.0126,0.0126,0.0104,0.0101,0.0094,0.0072,0.007,0.0078,0.0077,0.0077,0.0076,0,0,0,0,0,0,0,0.0174,0.0173,0.0165,0.0168,0.0166,0.015,0.0147,0.0132,0.0121,0.0138,0.0137,0.0136,0.0103,0.0096,0.0093,0.007,0.0078,0.0077,0.0076,0.0075,0.0047,0.0047,0,0,0,0,0,0,0.0182,0.0174,0.0166,0.0165,0.017,0.015,0.0147,0.0148,0.0122,0.0118,0.0136,0.0135,0.0098,0.0095,0.0091,0.0093,0.0077,0.0075,0.0074,0.0046,0.0047,0.0047,0,0,0,0,0,0,0.0182,0.0182,0.0168,0.0169,0.0166,0.015,0.0151,0.0148,0.0145,0.012,0.0116,0.0137,0.0098,0.0094,0.0087,0.0091,0.0074,0.0073,0.0046,0.0046,0.0047,0.0088,0,0,0,0,0,0,0.0183,0.0182,0.0187,0.017,0.0167,0.0165,0.0151,0.0147,0.0144,0.0143,0.012,0.0116,0.0098,0.009,0.0086,0.0089,0.0072,0.0046,0.0046,0.0047,0.0087,0.009,0.0093,0,0,0,0,0,0.0183,0.019,0.0187,0.0186,0.0173,0.0165,0.0162,0.0149,0.0145,0.0146,0.0133,0.0117,0.0089,0.0089,0.0084,0.0087,0.0046,0.0046,0.0047,0.0085,0.0089,0.0093,0,0,0,0,0,0,0.0196,0.0188,0.0185,0.0189,0.0181,0.0163,0.0163,0.0155,0.0145,0.0146,0.0121,0.0116,0.0111,0.0094,0.0094,0.0079,0.0064,0.0063,0.0095,0.0098,0.0101,0.0117,0.007,0,0,0,0,0,0.0201,0.0206,0.0194,0.0199,0.0196,0.0181,0.0177,0.0171,0.0159,0.0155,0.0138,0.0121,0.0107,0.0101,0.0085,0.0079,0.0055,0.0076,0.0079,0.0082,0.0091,0.0057,0.0058,0.0048,0.0048,0.0048,0,0,0.0207,0.0205,0.0207,0.0202,0.0194,0.0199,0.0179,0.0178,0.0184,0.0152,0.0153,0.0132,0.0108,0.0102,0.0097,0.0089,0.0071,0.0082,0.0085,0.0093,0.0057,0.0058,0.0059,0.0049,0.0049,0.0049,0,0,0.0224,0.022,0.023,0.0227,0.0223,0.0215,0.0218,0.0204,0.02,0.0198,0.0176,0.0161,0.014,0.0123,0.0112,0.0123,0.0089,0.0115,0.0143,0.011,0.0111,0.0111,0.008,0.0078,0.0116,0.0116,0.0116,0,0.0233,0.0245,0.0232,0.0241,0.0244,0.0226,0.024,0.0232,0.0219,0.0219,0.0206,0.0176,0.0151,0.0144,0.0145,0.013,0.0107,0.0132,0.0114,0.0114,0.0114,0.0082,0.0079,0.0118,0.0118,0.0118,0.0118,0,0.0256,0.0268,0.0274,0.0283,0.0283,0.0292,0.0282,0.0283,0.0274,0.0265,0.0256,0.0221,0.0204,0.0188,0.017,0.0157,0.014,0.0122,0.0107,0.0117,0.0083,0.0079,0.0121,0.0121,0.012,0.0119,0,0,0.0276,0.0289,0.0294,0.031,0.0308,0.0315,0.0323,0.0327,0.0342,0.0315,0.0323,0.0287,0.0266,0.0253,0.0221,0.019,0.0159,0.0159,0.0156,0.0133,0.0087,0.0073,0.0067,0.0137,0.0137,0.0136,0.0064,0,0.0303,0.0336,0.0332,0.0367,0.0384,0.0372,0.0388,0.0388,0.0379,0.0379,0.0338,0.0332,0.0292,0.0285,0.0247,0.0185,0.015,0.0181,0.0078,0.0075,0.0064,0.0062,0.0135,0.0061,0.006,0.0059,0.0058,0,0.0331,0.0352,0.0389,0.0421,0.0428,0.0446,0.0469,0.0482,0.0472,0.0466,0.0444,0.0407,0.0365,0.0325,0.0225,0.0247,0.0174,0.0119,0.0114,0.0086,0.0053,0.0047,0.005,0.005,0.0051,0.0052,0.0052,0,0.036,0.0395,0.0431,0.0439,0.0467,0.0486,0.0506,0.0511,0.0536,0.0522,0.053,0.0468,0.0446,0.0348,0.0232,0.0227,0.0114,0.009,0.0008,0.0006,0.0022,0.0022,0.0014,0.0015,0.0015,0.0015,0.0015,0,0.0391,0.0423,0.0452,0.0472,0.0531,0.0532,0.0589,0.0598,0.0613,0.065,0.0584,0.0585,0.045,0.0366,0.025,0.012,0.0125,0.0015,-0.0013,0.004,0.0044,0.0018,0.0019,0.0012,0.0013,0.0013,0.0014,0,0.0417,0.0433,0.0483,0.0525,0.0548,0.0593,0.0659,0.0695,0.0704,0.0744,0.0743,0.0674,0.0565,0.0418,0.0256,0.0156,0.0023,-0.0028,0.0046,0.0023,-0.0068,-0.0064,-0.0124,-0.0125,-0.0126,-0.0127,-0.0128,0,0.0432,0.0459,0.0528,0.0569,0.0593,0.0661,0.0712,0.0746,0.0787,0.08,0.082,0.0728,0.066,0.0431,0.0266,0.004,0.0003,-0.0069,-0.0077,-0.0061,-0.0082,-0.0077,-0.0071,-0.0129,-0.0129,-0.0129,-0.013,0,0.0462,0.0487,0.0529,0.0616,0.0679,0.0755,0.0826,0.0863,0.0901,0.0906,0.0885,0.076,0.0633,0.044,0.0262,0.0099,-0.0024,-0.008,-0.0079,-0.0087,-0.0067,-0.0087,-0.008,-0.0133,-0.0132,-0.0132,-0.0132,0,0.0488,0.0524,0.0581,0.0658,0.0744,0.0821,0.0858,0.0902,0.0943,0.095,0.0941,0.0798,0.0718,0.047,0.031,0.0144,0.0095,0.0034,0.0028,0.0029,0.0088,0.0136,0.0112,0,0,0,0,0,0.0508,0.0548,0.0618,0.0702,0.0786,0.0839,0.0923,0.0948,0.0983,0.0978,0.0963,0.0843,0.0602,0.05,0.0333,0.0274,0.0055,0.0069,-0.002,-0.015,-0.0147,-0.0107,0,0,0,0,0,0,0.0521,0.0586,0.0617,0.0725,0.0786,0.0884,0.0941,0.0963,0.0962,0.0967,0.0846,0.0791,0.056,0.0699,0.0327,0.0277,0.0194,-0.0039,-0.0043,-0.0152,-0.0149,-0.0146,-0.0104,0,0,0,0,0]}]]